OPS 4682 DEB, 38409

Orbit data source: Space-Track

OPS 4682 DEB, 38409 is space debris in LEO originally from a launch on Sat, 03 Apr 1965 UTC launched from the Air Force Western Test Range (AFWTR). Debris objects in space refer to the collection of defunct objects orbiting the Earth. Examples of debris include non-operational satellites, rocket bodies, and fragments generated from explosions, collisions, or faulty payload assembly.

Loading next visibility...
Identifier
38409, 1965-027DN
Orbit
LEO
Country
Flag of USUS
Related business
Manufacturer
Unknown
Mission
Spacecraft
Bus & Motor
Unknown
Mass
Unknown
Launch date (UTC)
1965-04-03 (61 years ago)
Launch vehicle
Unknown
Launch site
Air Force Western Test Range (AFWTR)
Object type
Payload
Rocket body
Debris
Shape & HBR
Unknown shape, 0.1 m
Radar Cross Section
Medium (>0.1 m² and <1 m²)

Expand to show TLE details & history
Last TLE update: 5 days ago

TLE from 5 days ago
0 OPS 4682 DEB
1 38409U 65027DN  26232.18865991  .00000847  00000-0  28141-2 0  9993
2 38409  90.2946  28.8060 0036455 178.4405 181.6837 12.99199952196525
Epoch: 2026-08-20T04:31Z
TLE epoch observation values (Epoch: 2026-08-20T04:31:40.216Z)
Latitude
0.00001°
Longitude
-7.64292°
Altitude
1,295.963 km
Speed
7.195 km/s
True Right ascension
01h 55m 13s
True Declination
0° 00' 00"
Sunlit
Object was in daylight at epoch
Visualization orbit readout
Latitude
Unknown
Longitude
Unknown
Altitude
Unknown
Speed
Unknown
Apparent Right ascension
Unknown
Apparent Declination
Unknown
Sunlit
N/A
Visualization observer readout
Local Sidereal Time
19:26:14
Azimuth
Unknown
Elevation
Unknown
Doppler factor
Unknown
Orbital elements
Apogee altitude
1,290.204 km
Perigee altitude
1,234.498 km
Semi-major axis
7,640.488 km
Eccentricity
0.00365
Inclination
90.2946°
RAAN
28.806°
Arg. of periapsis
178.4405°
True anomaly
181.67148°
Mean anomaly
181.6837°
Eccentric anomaly
181.67759°
Mean motion
3.24984 °/min
Orbital period
110.77 mins
BSTAR
0.0028141
Loading maneuver chart data...
Computing Atmospheric mass density...
Loading historical data...
Loading historical data...
Loading historical data...
Loading historical data...
Loading historical data...
Loading historical data...
Loading historical data...

Documentation

Showing up to 5 results
|